• In Russia
  • List of Countries
  • For 7 days
  • Water Temperature
  • Weather Map
  • Weather Widgets
  • user-avatar
    Login

    Hourly Weather Yeghegnadzor

    Today, 23 January, Thursday

    Time Temperature Precipitation Wind Pressure Humidity
    00:00 -7°C° 0 mm 1 mps 649 mmHg 57%
    01:00 -7°C° 0 mm 1 mps 649 mmHg 57%
    02:00 -7°C° 0 mm 1 mps 648 mmHg 58%
    03:00 -7°C° 0 mm 1 mps 648 mmHg 63%
    04:00 -7°C° 0 mm 1 mps 648 mmHg 64%
    05:00 -7°C° 0 mm 1 mps 647 mmHg 65%
    06:00 -8°C° 0 mm 1 mps 647 mmHg 66%
    07:00 -6°C° 0 mm 1 mps 647 mmHg 65%
    08:00 -4°C° 0 mm 1 mps 647 mmHg 63%
    09:00 -3°C° 0 mm 1 mps 647 mmHg 62%
    10:00 -2°C° 0 mm 1 mps 647 mmHg 61%
    11:00 -1°C° 0 mm 1 mps 647 mmHg 60%
    12:00 -2°C° 0 mm 2 mps 646 mmHg 58%
    13:00 -2°C° 0 mm 2 mps 646 mmHg 59%
    14:00 -2°C° 0 mm 2 mps 645 mmHg 59%
    15:00 -2°C° 0 mm 2 mps 645 mmHg 60%
    16:00 -1°C° 0 mm 1 mps 645 mmHg 63%
    17:00 -2°C° 0 mm 1 mps 645 mmHg 67%
    18:00 -3°C° 0 mm 1 mps 645 mmHg 70%
    19:00 -3°C° 0.1 mm 1 mps 645 mmHg 71%
    20:00 -3°C° 0.1 mm 1 mps 645 mmHg 73%
    21:00 -3°C° 0.1 mm 1 mps 645 mmHg 74%
    22:00 -4°C° 0.1 mm 1 mps 645 mmHg 77%
    23:00 -4°C° 0.1 mm 1 mps 646 mmHg 80%

    Tomorrow, 24 January, Friday

    Time Temperature Precipitation Wind Pressure Humidity
    00:00 -4°C° 0.1 mm 1 mps 646 mmHg 83%
    01:00 -4°C° 0.2 mm 1 mps 646 mmHg 86%
    02:00 -4°C° 0.2 mm 1 mps 646 mmHg 90%
    03:00 -5°C° 0.2 mm 0 mps 646 mmHg 93%
    04:00 -6°C° 0.1 mm 0 mps 646 mmHg 92%
    05:00 -6°C° 0.1 mm 0 mps 647 mmHg 91%
    06:00 -6°C° 0.1 mm 0 mps 647 mmHg 89%
    07:00 -5°C° 0 mm 0 mps 647 mmHg 88%
    08:00 -5°C° 0 mm 0 mps 648 mmHg 86%
    09:00 -4°C° 0 mm 0 mps 649 mmHg 84%
    10:00 -3°C° 0.1 mm 1 mps 649 mmHg 83%
    11:00 -2°C° 0.1 mm 1 mps 649 mmHg 81%
    12:00 -3°C° 0.1 mm 2 mps 649 mmHg 79%
    13:00 -3°C° 0.1 mm 2 mps 650 mmHg 77%
    14:00 -3°C° 0.1 mm 2 mps 650 mmHg 74%
    15:00 -3°C° 0.1 mm 2 mps 650 mmHg 72%
    16:00 -4°C° 0.1 mm 2 mps 651 mmHg 73%
    17:00 -5°C° 0.1 mm 2 mps 651 mmHg 74%
    18:00 -4°C° 0.1 mm 1 mps 651 mmHg 75%
    19:00 -7°C° 0 mm 2 mps 652 mmHg 72%
    20:00 -8°C° 0 mm 2 mps 653 mmHg 69%
    21:00 -8°C° 0 mm 2 mps 653 mmHg 66%
    22:00 -9°C° 0 mm 2 mps 653 mmHg 63%
    23:00 -9°C° 0 mm 1 mps 654 mmHg 60%

    Day after tomorrow, 25 January, Saturday

    Time Temperature Precipitation Wind Pressure Humidity
    00:00 -10°C° 0 mm 1 mps 654 mmHg 57%
    01:00 -10°C° 0 mm 1 mps 654 mmHg 56%
    02:00 -10°C° 0 mm 1 mps 654 mmHg 54%
    03:00 -11°C° 0 mm 1 mps 654 mmHg 53%
    04:00 -11°C° 0 mm 1 mps 654 mmHg 52%
    05:00 -11°C° 0 mm 1 mps 654 mmHg 52%
    06:00 -11°C° 0 mm 1 mps 654 mmHg 52%
    07:00 -10°C° 0 mm 1 mps 655 mmHg 52%
    08:00 -9°C° 0 mm 0 mps 656 mmHg 51%
    09:00 -7°C° 0 mm 0 mps 657 mmHg 50%
    10:00 -6°C° 0 mm 1 mps 656 mmHg 50%
    11:00 -4°C° 0 mm 1 mps 656 mmHg 50%
    12:00 -3°C° 0 mm 1 mps 656 mmHg 50%
    13:00 -3°C° 0 mm 1 mps 656 mmHg 51%
    14:00 -3°C° 0 mm 1 mps 655 mmHg 53%
    15:00 -3°C° 0 mm 1 mps 655 mmHg 54%
    16:00 -4°C° 0 mm 1 mps 655 mmHg 54%
    17:00 -6°C° 0 mm 1 mps 654 mmHg 55%
    18:00 -8°C° 0 mm 1 mps 654 mmHg 55%
    19:00 -8°C° 0 mm 1 mps 654 mmHg 54%
    20:00 -8°C° 0 mm 1 mps 654 mmHg 53%
    21:00 -8°C° 0 mm 0 mps 654 mmHg 51%
    22:00 -8°C° 0 mm 0 mps 654 mmHg 52%
    23:00 -8°C° 0 mm 0 mps 653 mmHg 52%

    26 January, Sunday

    Time Temperature Precipitation Wind Pressure Humidity
    00:00 -8°C° 0 mm 0 mps 653 mmHg 52%
    01:00 -8°C° 0 mm 0 mps 653 mmHg 52%
    02:00 -8°C° 0 mm 0 mps 653 mmHg 53%
    03:00 -8°C° 0 mm 0 mps 653 mmHg 53%
    04:00 -8°C° 0 mm 0 mps 653 mmHg 53%
    05:00 -8°C° 0 mm 1 mps 653 mmHg 54%
    06:00 -8°C° 0 mm 1 mps 652 mmHg 55%
    07:00 -7°C° 0 mm 0 mps 653 mmHg 54%
    08:00 -6°C° 0 mm 0 mps 654 mmHg 54%
    09:00 -4°C° 0 mm 0 mps 654 mmHg 54%
    10:00 -2°C° 0 mm 1 mps 654 mmHg 54%
    11:00 -1°C° 0 mm 1 mps 654 mmHg 53%
    12:00 0°C° 0 mm 1 mps 653 mmHg 53%
    13:00 0°C° 0 mm 1 mps 653 mmHg 55%
    14:00 0°C° 0 mm 1 mps 653 mmHg 57%
    15:00 0°C° 0 mm 1 mps 653 mmHg 59%
    16:00 -1°C° 0 mm 1 mps 652 mmHg 59%
    17:00 -3°C° 0 mm 1 mps 652 mmHg 59%
    18:00 -4°C° 0 mm 1 mps 652 mmHg 60%
    19:00 -4°C° 0 mm 1 mps 652 mmHg 59%
    20:00 -4°C° 0 mm 1 mps 652 mmHg 58%
    21:00 -6°C° 0 mm 1 mps 652 mmHg 57%
    22:00 -6°C° 0 mm 1 mps 652 mmHg 57%
    23:00 -6°C° 0 mm 1 mps 652 mmHg 57%

    27 January, Monday

    Time Temperature Precipitation Wind Pressure Humidity
    00:00 -4°C° 0 mm 1 mps 653 mmHg 57%
    01:00 -6°C° 0 mm 1 mps 653 mmHg 58%
    02:00 -6°C° 0 mm 1 mps 653 mmHg 58%
    03:00 -7°C° 0 mm 1 mps 653 mmHg 59%
    04:00 -7°C° 0 mm 1 mps 653 mmHg 59%
    05:00 -7°C° 0 mm 1 mps 653 mmHg 60%
    06:00 -7°C° 0 mm 0 mps 653 mmHg 60%
    07:00 -5°C° 0 mm 0 mps 654 mmHg 59%
    08:00 -3°C° 0 mm 1 mps 655 mmHg 58%
    09:00 -2°C° 0 mm 1 mps 656 mmHg 57%
    10:00 -1°C° 0 mm 1 mps 657 mmHg 56%
    11:00 0°C° 0 mm 1 mps 657 mmHg 56%
    12:00 +1°C° 0 mm 1 mps 657 mmHg 55%
    13:00 +1°C° 0 mm 1 mps 657 mmHg 57%
    14:00 +2°C° 0 mm 1 mps 657 mmHg 59%
    15:00 +2°C° 0 mm 1 mps 657 mmHg 61%
    16:00 0°C° 0 mm 1 mps 657 mmHg 63%
    17:00 -2°C° 0 mm 1 mps 657 mmHg 65%
    18:00 -5°C° 0 mm 0 mps 656 mmHg 68%
    19:00 -4°C° 0 mm 1 mps 657 mmHg 66%
    20:00 -4°C° 0 mm 1 mps 657 mmHg 63%
    21:00 -4°C° 0 mm 1 mps 657 mmHg 61%
    22:00 -4°C° 0 mm 1 mps 657 mmHg 63%
    23:00 -4°C° 0 mm 1 mps 657 mmHg 64%

    28 January, Tuesday

    Time Temperature Precipitation Wind Pressure Humidity
    00:00 -4°C° 0 mm 1 mps 657 mmHg 65%
    01:00 -4°C° 0 mm 1 mps 657 mmHg 65%
    02:00 -6°C° 0 mm 1 mps 657 mmHg 65%
    03:00 -6°C° 0 mm 1 mps 657 mmHg 65%
    04:00 -6°C° 0 mm 1 mps 657 mmHg 66%
    05:00 -6°C° 0 mm 1 mps 657 mmHg 66%
    06:00 -6°C° 0 mm 1 mps 656 mmHg 67%
    07:00 -4°C° 0 mm 1 mps 657 mmHg 64%
    08:00 -2°C° 0 mm 1 mps 657 mmHg 62%
    09:00 -1°C° 0 mm 1 mps 658 mmHg 60%
    10:00 0°C° 0 mm 1 mps 658 mmHg 59%
    11:00 +1°C° 0 mm 1 mps 657 mmHg 58%
    12:00 +2°C° 0 mm 1 mps 657 mmHg 57%
    13:00 +2°C° 0 mm 1 mps 657 mmHg 58%
    14:00 +2°C° 0 mm 1 mps 656 mmHg 60%
    15:00 +2°C° 0 mm 1 mps 656 mmHg 62%
    16:00 +1°C° 0 mm 1 mps 655 mmHg 63%
    17:00 -1°C° 0 mm 1 mps 655 mmHg 65%
    18:00 -3°C° 0 mm 1 mps 654 mmHg 66%
    19:00 -3°C° 0 mm 1 mps 655 mmHg 65%
    20:00 -4°C° 0 mm 0 mps 655 mmHg 64%
    21:00 -4°C° 0 mm 0 mps 655 mmHg 63%
    22:00 -4°C° 0 mm 0 mps 655 mmHg 63%
    23:00 -4°C° 0 mm 0 mps 655 mmHg 63%
    Show more